K3GM Weather Reports


Display with metric or nautical units.
time (UTC)temp
F
wind
direction
speed
MPH
gust
MPH
rain 1hr
in
rain 24hr
in
rain mn
in
humidity
%
barometer
mb
20260510030031 52 0 0.0 0.0 0.00 0.01 0.01 98 1010.9
20260510024536 52 0 0.0 0.0 0.00 0.01 0.01 97 1011.2
20260510023034 53 0 0.0 0.0 0.00 0.01 0.01 97 1011.1
20260510021535 53 0 0.0 0.0 0.00 0.01 0.01 96 1011.1
20260510020036 53 0 0.0 0.0 0.00 0.01 0.01 95 1010.9
20260510014531 54 0 0.0 0.0 0.00 0.01 0.01 94 1010.8
20260510013036 54 0 0.0 0.0 0.00 0.01 0.01 92 1011.1
20260510011536 55 0 0.0 0.0 0.00 0.01 0.01 92 1010.9
20260510010038 55 0 0.0 0.0 0.00 0.01 0.01 90 1010.7
20260510004535 56 0 0.0 0.0 0.00 0.01 0.01 89 1010.7
20260510003035 56 0 0.0 0.0 0.00 0.01 0.01 88 1010.7
20260510001536 57 0 0.0 0.0 0.00 0.01 0.01 87 1010.6
20260510000039 58 0 0.0 0.0 0.00 0.01 0.01 86 1010.7
20260509234542 58 0 0.0 0.0 0.00 0.01 0.01 85 1010.7
20260509233036 58 0 0.0 1.0 0.00 0.01 0.01 84 1010.4
20260509231534 59 0 0.0 4.0 0.00 0.01 0.01 84 1010.2
20260509230041 59 86 1.0 6.0 0.00 0.01 0.01 84 1010.2
20260509224546 59 0 0.0 3.0 0.00 0.01 0.01 85 1010.4
20260509223033 59 350 0.0 4.0 0.00 0.01 0.01 85 1010.5
20260509221533 59 0 0.0 2.0 0.00 0.01 0.01 85 1010.7
20260509220034 59 0 0.0 5.0 0.00 0.01 0.01 85 1010.7
20260509214535 60 0 0.0 3.0 0.00 0.01 0.01 84 1011.0
20260509213035 60 0 0.0 3.0 0.00 0.01 0.01 81 1010.9
20260509211530 61 312 2.0 8.0 0.00 0.01 0.01 77 1011.2
20260509210037 61 0 1.0 5.0 0.00 0.01 0.01 76 1010.8
20260509204535 61 0 3.0 8.0 0.00 0.01 0.01 75 1011.0
20260509203050 61 0 1.0 8.0 0.00 0.01 0.01 76 1010.7
20260509201532 60 0 1.0 8.0 0.00 0.01 0.01 76 1010.3
20260509200035 61 0 3.0 10.0 0.00 0.01 0.01 79 1010.4
20260509194535 60 308 2.0 11.0 0.00 0.01 0.01 78 1010.4
20260509193035 61 312 2.0 6.0 0.00 0.01 0.01 73 1011.0
20260509191535 60 0 1.0 6.0 0.01 0.01 0.01 81 1010.7
20260509190035 60 0 1.0 5.0 0.01 0.01 0.01 79 1011.3
20260509184545 60 0 1.0 6.0 0.01 0.01 0.01 80 1011.2
20260509183038 60 312 1.0 5.0 0.01 0.01 0.01 81 1011.2
20260509181536 62 0 0.0 7.0 0.00 0.00 0.00 75 1011.3
20260509180105 62 317 2.0 8.0 0.00 0.00 0.00 72 1011.3
20260509174535 63 0 1.0 9.0 0.00 0.00 0.00 62 1011.1
20260509173040 64 310 4.0 8.0 0.00 0.00 0.00 65 1011.0
20260509171545 64 0 3.0 8.0 0.00 0.00 0.00 64 1011.1
20260509170048 65 315 0.0 5.0 0.00 0.00 0.00 65 1011.0
20260509164536 66 0 1.0 4.0 0.00 0.00 0.00 64 1011.0
20260509163037 67 0 0.0 4.0 0.00 0.00 0.00 64 1010.9
20260509161531 66 0 0.0 4.0 0.00 0.00 0.00 58 1011.4
20260509160036 65 0 0.0 2.0 0.00 0.00 0.00 66 1011.8
20260509154535 65 0 0.0 1.0 0.00 0.00 0.00 59 1012.1
20260509153035 65 0 0.0 2.0 0.00 0.00 0.00 59 1012.2
20260509151538 65 0 0.0 3.0 0.00 0.00 0.00 67 1012.4
20260509150032 66 0 0.0 1.0 0.00 0.00 0.00 69 1012.4
20260509144538 66 0 0.0 1.0 0.00 0.00 0.00 67 1012.2
20260509143041 65 0 0.0 5.0 0.00 0.00 0.00 62 1012.1
20260509141543 64 0 0.0 0.0 0.00 0.00 0.00 72 1012.0
20260509140033 63 0 0.0 5.0 0.00 0.00 0.00 72 1012.1
20260509134533 62 0 0.0 3.0 0.00 0.00 0.00 74 1012.2
20260509133054 62 0 0.0 3.0 0.00 0.00 0.00 68 1012.1
20260509131536 62 0 0.0 5.0 0.00 0.00 0.00 76 1012.4
20260509130033 61 0 0.0 3.0 0.00 0.00 0.00 70 1012.2
20260509124533 60 0 0.0 5.0 0.00 0.00 0.00 79 1012.4
20260509123035 59 0 0.0 3.0 0.00 0.00 0.00 79 1012.4
20260509121536 59 138 0.0 4.0 0.00 0.00 0.00 80 1012.4
20260509120037 58 0 0.0 5.0 0.00 0.00 0.00 81 1012.4
20260509114537 58 133 0.0 3.0 0.00 0.00 0.00 82 1012.6
20260509113038 56 0 0.0 7.0 0.00 0.00 0.00 83 1012.5
20260509111535 56 0 0.0 2.0 0.00 0.00 0.00 83 1012.7
20260509110038 55 0 0.0 0.0 0.00 0.00 0.00 82 1012.5
20260509104551 55 0 0.0 0.0 0.00 0.00 0.00 81 1012.5
20260509103038 55 0 0.0 0.0 0.00 0.00 0.00 80 1012.4
20260509101538 55 0 0.0 0.0 0.00 0.00 0.00 79 1012.4
20260509100036 55 0 0.0 2.0 0.00 0.00 0.00 78 1012.4
20260509094537 55 0 0.0 1.0 0.00 0.00 0.00 77 1012.3
20260509093036 55 0 0.0 1.0 0.00 0.00 0.00 76 1012.2
20260509091540 55 0 0.0 7.0 0.00 0.00 0.00 75 1012.2
20260509090048 55 0 0.0 4.0 0.00 0.00 0.00 74 1012.2
20260509084531 55 0 0.0 2.0 0.00 0.00 0.00 74 1012.3
20260509083036 55 0 0.0 2.0 0.00 0.00 0.00 72 1012.2
20260509081548 55 0 0.0 4.0 0.00 0.00 0.00 71 1012.3
20260509080038 55 0 0.0 2.0 0.00 0.00 0.00 70 1012.5
20260509074534 56 0 0.0 1.0 0.00 0.00 0.00 69 1012.7
20260509073043 56 0 0.0 0.0 0.00 0.00 0.00 67 1012.6
20260509071545 57 0 0.0 2.0 0.00 0.00 0.00 65 1012.5
20260509070042 57 0 0.0 4.0 0.00 0.00 0.00 65 1012.6
20260509064535 58 0 0.0 3.0 0.00 0.00 0.00 65 1012.9
20260509063056 58 0 0.0 3.0 0.00 0.00 0.00 64 1012.9
20260509061550 58 0 0.0 2.0 0.00 0.00 0.00 56 1013.1
20260509060051 59 0 0.0 4.0 0.00 0.00 0.00 61 1013.0
20260509054535 59 0 0.0 1.0 0.00 0.00 0.00 55 1013.2
20260509053035 59 0 0.0 0.0 0.00 0.00 0.00 55 1013.3
20260509051535 59 0 0.0 1.0 0.00 0.00 0.00 61 1013.5
20260509050034 59 0 0.0 0.0 0.00 0.00 0.00 60 1013.4
20260509044536 60 0 0.0 1.0 0.00 0.00 0.00 51 1013.3
20260509043036 60 0 0.0 1.0 0.00 0.00 0.00 57 1013.3
20260509041535 60 0 0.0 0.0 0.00 0.00 0.00 57 1013.2
20260509040036 60 0 0.0 1.0 0.00 0.00 0.00 56 1013.3
20260509034536 61 0 0.0 2.0 0.00 0.00 0.00 48 1013.3
20260509033036 61 0 0.0 0.0 0.00 0.00 0.00 54 1013.2
20260509031538 61 0 0.0 0.0 0.00 0.00 0.00 54 1013.1